Regional Weather Roundup
Issued by NWS

Home | Current Version | Previous Version | Text Only | Print | Product List | Glossary On
Versions: 1 2 3 4 5 6 7 8 9 10 11 12 13 14 15 16 17 18 19 20 21 22 23 24 25 26 27 28 29 30 31 32 33 34 35 36 37 38 39 40 41 42 43 44 45 46 47 48 49 50
000
ASUS46 KSTO 270115
RWRCA

NORTHERN AND CENTRAL CA REGIONAL WEATHER ROUNDUP
NATIONAL WEATHER SERVICE SACRAMENTO CA
600 PM PDT THU APR 26 2018

NOTE: FAIR INDICATES FEW OR NO CLOUDS BELOW 12,000 FEET WITH NO
SIGNIFICANT WEATHER AND/OR OBSTRUCTIONS TO VISIBILITY.

CAZ001-003-270200-
NORTHWEST AREA

CITY           SKY/WX    TMP DP  RH WIND       PRES   REMARKS
CRESCENT CITY  CLOUDY    52  47  83 SW5       30.02F
UKIAH          SUNNY     71  45  39 W9        29.90S
$$

CAZ006-505>513-270200-
BAY AREA

CITY           SKY/WX    TMP DP  RH WIND       PRES   REMARKS
SANTA ROSA     SUNNY     62  48  60 SW9       29.93F
SAN RAFAEL     N/A       62  MM  MM MISG
NAPA           SUNNY     59  47  64 W17       29.94S
CONCORD        SUNNY     63  47  55 W14       29.95S
OAKLAND CITY   N/A      MM  MM  MM MISG
OAKLAND        MOSUNNY   57  47  69 W17       29.98F
SAN FRAN CITY  N/A       55  MM  66 MISG
SAN FRAN ARPT  MOSUNNY   58  44  60 W16G23    29.98F
LIVERMORE      SUNNY     60  46  59 W17       29.94S
HAYWARD        SUNNY     59  44  57 W16       29.98S
REDWOOD CITY   N/A       61  MM  57 MISG
MOFFETT ARPT   SUNNY     62  46  55 N18       29.97F
SAN JOSE ARPT  MOSUNNY   63  47  55 NW15      29.97S
$$
CAZ034-037-514>518-270200-
CENTRAL COAST

CITY           SKY/WX    TMP DP  RH WIND       PRES   REMARKS
WATSONVILLE    SUNNY     55  48  77 SW10      30.01S
SALINAS        MOSUNNY   58  46  64 W15       30.01S
MONTEREY       MOSUNNY   55  46  71 SW13      30.02S
SAN LUIS OBISP MOSUNNY   58  48  69 NW18      30.00R
SANTA MARIA    MOSUNNY   59  48  67 NW14      30.01S
$$
CAZ015-016-270200-
NORTHERN SACRAMENTO VALLEY

CITY           SKY/WX    TMP DP  RH WIND       PRES   REMARKS
REDDING        SUNNY     81  53  37 S7        29.81F
RED BLUFF      SUNNY     81  53  37 S12       29.82F
OROVILLE       SUNNY     79  52  38 SE12      29.85F
$$
CAZ016>018-270200-
SOUTHERN SACRAMENTO VALLEY

CITY           SKY/WX    TMP DP  RH WIND       PRES   REMARKS
AUBURN         SUNNY     72  48  43 SW7       29.92S
BEALE AFB      SUNNY     75  49  39 S9        29.84F
LINCOLN        FAIR      73  48  40 S9        29.86S
MARYSVILLE     SUNNY     74  50  42 S12       29.86F
SAC INTL ARPT  SUNNY     72  50  45 S16       29.86F
MATHER AIRPORT SUNNY     72  46  40 SW12      29.88S
DOWNTOWN SAC   N/A       71  MM  MM MISG
SAC EXEC ARPT  SUNNY     67  51  56 S10       29.88F
VACAVILLE      SUNNY     68  50  52 S16G23    29.89S
TRAVIS AFB     SUNNY     62  47  57 SW29G35   29.88S
$$
CAZ019>021-270200-
SAN JOAQUIN VALLEY

CITY           SKY/WX    TMP DP  RH WIND       PRES   REMARKS
STOCKTON       SUNNY     76  48  37 NW15      29.88F
MODESTO        SUNNY     79  49  34 N13       29.86F
MERCED         SUNNY     81  47  30 N8        29.85F
LEMOORE        SUNNY     86  45  23 N9        29.84F
FRESNO         MOSUNNY   86  47  25 W8        29.85F
HANFORD        SUNNY     86  48  26 NE5       29.84F
PORTERVILLE    SUNNY     85  51  31 W9        29.85F
BAKERSFIELD    SUNNY     87  49  26 NW13      29.84F
$$
CAZ011-012-071-270200-
NORTHERN MOUNTAINS

CITY           SKY/WX    TMP DP  RH WIND       PRES   REMARKS
YREKA          MOSUNNY   80  37  21 S14       29.83F
MOUNT SHASTA   MOSUNNY   74  36  25 CALM      29.91F
$$
CAZ011-012-071-270200-
SIERRA NEVADA MTNS

CITY           SKY/WX    TMP DP  RH WIND       PRES   REMARKS
BLUE CANYON    FAIR      63  42  46 SW8       30.06S
TRUCKEE        PTSUNNY   57  46  67 SE7       30.06R THUNDER
TAHOE VLY ARPT CLOUDY    68  37  32 NE6       30.06S
MAMMOTH LAKES  FAIR      67  27  21 SW10G21   30.10F
$$



USA.gov is the U.S. government's official web portal to all federal, state and local government web resources and services.